Location: Cran-Gévrier
(45.9039°N, 6.1012°E)
Time: 10:08:33
(UTC+00:00)

PAYLOAD B - Pass Details

Date: 09 February 2023
Orbit: 849 x 870 km, 99.1° (Epoch: 31 March)

Event Time Altitude Azimuth Distance (km) Brightness Sun altitude
Rises 17:51:17 0° 154° (SSE) 3,411 7.2 -10.7°
Reaches altitude 10° 17:53:40 10° 151° (SSE) 2,477 6.4 -11.1°
Maximum altitude 17:59:05 65° 71° (ENE) 936 4.2 -12.0°
Drops below altitude 10° 18:04:33 10° 351° (N) 2,487 6.7 -13.0°
Sets 18:06:56 0° 348° (NNW) 3,426 7.4 -13.4°
